sat.trackr.live / text

‹ back to catalog

STARLINK-34065

NORAD 63813 · 2025-092K

PAYLOAD ACTIVE UNKNOWN

§ Identity

Operator
Country
US
Launch date
2025-05-04
Launch site
AFETR
Launch vehicle
Mass (kg)
RCS (m²)

Purposes: comms

External: N2YO · Heavens-Above · Gunter

§ Orbital elements

Epoch: 2026-05-25T03:50:12.989184Z

Period
94.27 min
Inclination
42.9989°
Eccentricity
0.0001185
Mean motion
15.27589812 rev/d
Perigee alt
482.2 km
Apogee alt
483.8 km
Semi-major
6,861.2 km
B*
7.8660e-4
RAAN
96.8384°
Arg perigee
242.2456°
Mean anomaly
117.8276°
Rev number
6,029

§ Raw data

STARLINK-340651 63813U 25092K   26145.15987256  .00021453  00000+0  78660-3 0  99942 63813  42.9989  96.8384 0001185 242.2456 117.8276 15.27589812 60299

JSON: /api/v1/satellites/63813 · /tle

For live sub-satellite position, see the globe view (requires WebGL).

§ Visibility from observer

Set your observer location to see the next 7 days of passes ≥ 10°. The values pass through the URL so the page stays shareable.

No JS? Fill the form by hand. The geolocation button needs JavaScript.